{"data":{"norad_id":68048,"epoch":"2026-09-20T04:05:38.372928Z","epoch_age_seconds":88007,"freshness":"FRESH","line1":"1 68048U 26041J   26263.17058302  .00016253  00000+0  49113-3 0  9991","line2":"2 68048  53.1567 221.6025 0001220  89.2665 270.8477 15.34399899 31238","mean_motion":15.34399899,"eccentricity":0.000122,"inclination_deg":53.1567,"raan_deg":221.6025,"arg_perigee_deg":89.2665,"mean_anomaly_deg":270.8477,"bstar":0.00049113,"rev_number":3123,"period_min":93.847764258749,"perigee_km":461.86895785448,"apogee_km":463.53812294633,"semimajor_km":6840.8405404004,"source":"CELESTRAK","updated_at":"2026-09-20T09:00:43.748502Z"}}